GFSNGP_925_temp_105.txt.gz
Temp
11 11 11 12 13 14 14 15 15 15 15 16 14 14 13 14 14 13 12 11 10 9 8 8 9 12 12 12 12 12 11 11 10 10 10 10 10 10 10 10 11 11 10 10
11 12 12 12 13 13 14 14 14 15 15 13 14 13 12 11 11 10 10 9 8 7 6 6 6 8 12 12 12 12 11 11 11 10 10 10 10 10 10 10 11 10 10 10
11 11 12 13 13 14 13 13 13 14 13 13 13 11 9 9 9 8 8 7 6 6 5 4 5 6 8 11 12 12 11 11 11 11 10 10 10 10 10 11 11 11 10 10
11 11 11 12 13 14 13 12 12 13 12 12 11 9 8 8 7 6 6 6 5 4 3 2 3 4 5 10 12 12 12 12 11 11 11 11 11 11 11 11 10 10 10 11
10 11 12 13 12 12 12 11 11 10 12 11 12 10 7 6 6 5 4 4 3 2 2 1 2 2 3 3 4 5 5 5 6 9 11 11 11 11 11 11 10 10 10 10
9 10 11 11 11 11 12 11 10 10 10 11 12 10 8 5 4 4 3 2 2 1 1 1 1 1 2 1 1 1 2 2 2 4 5 7 9 11 11 11 11 11 10 10
10 10 11 9 10 11 12 10 8 9 8 8 8 7 5 4 3 1 1 1 1 1 0 -0 -0 0 -0 -0 -1 -1 -0 -0 1 2 2 3 5 7 10 11 10 8 5 4
10 9 10 7 10 11 8 7 7 6 6 6 6 5 4 3 2 0 -0 -1 -1 0 -0 -1 -1 -1 -1 -1 -2 -2 -2 -1 -1 -1 -0 1 2 3 4 5 3 0 0 -1
9 9 7 6 6 6 7 6 5 5 5 5 4 3 2 1 1 -1 -2 -2 -2 -1 -1 -2 -2 -2 -2 -2 -2 -2 -3 -3 -3 -2 -2 -2 -1 -1 -1 0 -1 -2 -2 -3
8 7 6 5 4 5 5 4 3 3 4 4 2 2 1 -0 -1 -1 -2 -2 -3 -2 -2 -3 -3 -3 -4 -3 -2 -2 -3 -3 -4 -4 -3 -3 -3 -3 -2 -2 -2 -2 -3 -3
6 5 5 4 3 2 2 2 2 1 1 1 2 0 -1 -1 -2 -2 -3 -3 -3 -3 -3 -3 -4 -4 -4 -4 -3 -3 -3 -3 -4 -4 -4 -4 -4 -4 -4 -4 -4 -4 -4 -4
5 3 4 3 1 1 0 0 0 1 -1 -1 -1 -1 -1 -2 -3 -4 -4 -4 -4 -4 -4 -4 -5 -5 -5 -5 -5 -3 -4 -4 -4 -4 -5 -5 -5 -5 -5 -5 -5 -5 -5 -5
3 2 2 1 0 -0 -1 -1 -2 -2 -2 -2 -3 -3 -3 -3 -4 -4 -4 -5 -5 -5 -5 -6 -6 -6 -6 -6 -6 -6 -5 -5 -6 -6 -6 -6 -6 -6 -6 -7 -6 -6 -6 -6
1 2 1 1 0 -1 -1 -1 -2 -3 -4 -4 -4 -4 -4 -4 -5 -6 -5 -6 -6 -6 -6 -6 -6 -7 -7 -7 -6 -7 -8 -7 -7 -7 -7 -8 -8 -8 -8 -8 -8 -9 -8 -7
-0 1 1 0 -0 -1 -1 -1 -2 -3 -3 -4 -5 -5 -6 -6 -6 -7 -7 -7 -7 -7 -7 -7 -7 -7 -8 -7 -7 -8 -8 -8 -8 -8 -8 -9 -9 -9 -9 -9 -9 -9 -9 -10
-1 -1 -1 -1 -2 -3 -3 -2 -3 -3 -4 -5 -6 -7 -7 -8 -8 -8 -9 -9 -8 -9 -9 -9 -9 -8 -8 -8 -8 -8 -9 -9 -8 -8 -8 -9 -9 -9 -9 -10 -10 -11 -12 -11
-0 -1 -2 -2 -3 -4 -4 -5 -4 -5 -6 -7 -8 -8 -8 -8 -9 -9 -10 -10 -11 -11 -10 -10 -9 -8 -8 -8 -8 -8 -9 -9 -9 -9 -9 -9 -10 -10 -11 -11 -12 -13 -14 -15
-5 -4 -4 -4 -4 -4 -5 -6 -7 -8 -9 -10 -11 -11 -12 -11 -11 -11 -12 -11 -11 -10 -11 -11 -9 -9 -8 -8 -9 -9 -9 -9 -10 -10 -10 -11 -11 -12 -12 -12 -13 -13 -14 -15
-7 -7 -7 -7 -7 -7 -7 -8 -9 -11 -12 -12 -12 -13 -13 -13 -13 -13 -12 -12 -12 -11 -12 -11 -10 -9 -10 -9 -9 -10 -10 -10 -11 -11 -12 -12 -13 -13 -13 -14 -14 -14 -15 -15
-8 -9 -10 -11 -11 -11 -12 -12 -13 -13 -13 -12 -13 -13 -13 -13 -13 -13 -13 -13 -14 -13 -12 -11 -11 -11 -10 -10 -10 -11 -11 -11 -12 -12 -13 -13 -13 -14 -15 -16 -16 -16 -16 -17
-12 -12 -12 -13 -13 -13 -13 -13 -13 -14 -13 -13 -13 -14 -14 -14 -13 -13 -12 -12 -14 -13 -12 -11 -12 -12 -11 -11 -11 -11 -12 -13 -13 -13 -14 -14 -14 -15 -15 -16 -16 -17 -17 -18
-13 -13 -13 -13 -13 -14 -14 -13 -13 -13 -14 -14 -14 -14 -14 -14 -14 -14 -15 -14 -14 -13 -13 -13 -12 -11 -11 -11 -12 -12 -13 -14 -14 -14 -15 -15 -15 -15 -16 -16 -17 -17 -18 -18
-13 -13 -13 -13 -14 -14 -14 -14 -14 -14 -14 -14 -14 -14 -14 -14 -14 -13 -13 -15 -15 -13 -14 -13 -13 -12 -12 -12 -12 -13 -13 -13 -14 -15 -15 -15 -16 -16 -17 -17 -18 -18 -18 -19
-12 -13 -13 -13 -13 -13 -13 -14 -14 -14 -14 -14 -14 -14 -14 -14 -15 -15 -15 -15 -14 -14 -14 -14 -14 -13 -13 -13 -14 -14 -14 -15 -15 -15 -15 -15 -16 -16 -16 -17 -17 -17 -18 -18
-12 -12 -12 -12 -12 -12 -13 -13 -14 -14 -14 -14 -14 -14 -15 -15 -15 -16 -15 -15 -15 -15 -15 -15 -15 -14 -14 -15 -15 -15 -15 -16 -16 -16 -16 -16 -17 -17 -17 -18 -18 -18 -19 -19
-11 -11 -11 -11 -12 -12 -12 -13 -13 -14 -14 -14 -15 -15 -15 -15 -15 -15 -16 -16 -16 -16 -16 -16 -16 -16 -16 -16 -16 -16 -17 -17 -17 -17 -17 -18 -18 -18 -18 -19 -19 -19 -19 -19
-10 -11 -11 -11 -11 -12 -12 -12 -12 -13 -14 -15 -15 -16 -15 -16 -16 -16 -16 -16 -16 -17 -17 -17 -17 -17 -17 -17 -17 -18 -18 -18 -18 -18 -18 -19 -19 -19 -19 -19 -19 -19 -19 -20

GFSNGP_925_temp_111.txt.gz
Temp
15 15 17 16 17 20 20 20 19 19 19 18 17 17 15 14 14 14 13 12 12 11 10 10 9 7 5 5 6 12 12 12 12 13 13 14 13 14 13 14 14 13 12 12
16 17 18 17 19 19 20 20 20 21 21 20 17 16 14 12 12 11 10 9 9 9 8 8 6 4 3 3 4 7 12 11 11 12 13 14 13 13 13 13 14 13 12 12
15 17 17 16 18 19 19 20 20 19 18 18 14 12 10 10 9 8 7 8 6 5 5 4 3 2 2 2 2 8 11 11 11 11 12 13 13 13 13 13 12 13 14 13
14 15 14 17 18 19 19 17 17 17 16 17 13 9 7 7 7 7 6 6 4 3 2 2 1 1 1 1 2 8 9 10 11 11 12 12 13 13 13 13 13 12 12 12
13 15 16 17 14 13 14 12 14 14 14 13 10 8 6 7 7 6 4 3 2 2 1 -0 -0 0 0 0 -0 2 3 4 5 9 11 13 13 13 13 13 13 12 12 12
13 14 13 10 13 12 13 12 11 12 12 13 12 11 7 7 6 5 4 2 1 1 -0 -1 -1 -1 -0 -1 -1 -1 0 0 1 3 6 8 9 11 11 13 12 10 10 9
13 14 14 13 14 12 12 10 10 11 11 11 9 7 6 5 5 3 2 0 -0 -1 -1 -1 -1 -1 -1 -1 -1 -1 -1 -0 0 0 1 2 4 7 8 9 8 7 6 4
13 13 12 10 12 10 7 9 9 9 9 8 7 6 5 4 4 2 1 -1 -1 -1 -1 -2 -2 -1 -1 -1 -1 -2 -1 -0 -1 -0 -0 -0 1 1 2 2 2 -0 -0 -1
10 9 7 7 6 7 9 9 9 9 9 8 7 6 4 3 2 1 -1 -2 -2 -2 -2 -2 -2 -2 -1 -1 -1 -2 -2 -2 -2 -2 -2 -2 -1 -1 -1 -1 -2 -3 -3 -4
10 5 4 4 5 6 8 8 9 9 8 8 6 6 5 3 2 0 -1 -2 -3 -3 -3 -3 -3 -3 -2 -0 -0 -1 -2 -3 -3 -3 -4 -4 -4 -3 -3 -3 -3 -4 -4 -5
7 5 5 5 3 4 5 7 7 7 7 7 7 6 5 4 2 1 -1 -2 -3 -3 -4 -4 -4 -4 -3 -2 -0 -1 -1 -2 -3 -4 -4 -4 -5 -5 -5 -4 -4 -4 -5 -5
6 4 5 3 2 2 3 4 5 6 5 4 5 5 5 3 2 1 1 -1 -2 -3 -3 -4 -4 -4 -4 -3 -3 -2 -2 -3 -3 -3 -4 -4 -5 -5 -5 -5 -5 -5 -5 -5
4 2 2 2 1 1 1 0 2 4 4 4 3 2 2 2 0 -0 -1 -1 -2 -3 -4 -4 -5 -5 -5 -4 -4 -4 -3 -3 -4 -4 -4 -4 -4 -5 -6 -7 -7 -6 -6 -6
2 2 2 1 1 1 1 0 -0 1 2 2 2 1 1 0 -0 -1 -2 -2 -3 -3 -4 -4 -4 -5 -5 -5 -4 -4 -4 -4 -4 -4 -4 -4 -4 -4 -5 -5 -6 -7 -7 -7
2 1 1 0 -0 0 0 2 3 2 2 1 -0 -1 -1 -2 -2 -3 -4 -3 -4 -4 -5 -6 -6 -6 -5 -5 -5 -4 -4 -4 -5 -5 -4 -4 -4 -4 -4 -4 -5 -5 -6 -6
2 2 1 -0 -1 -1 0 2 3 1 1 0 -1 -2 -2 -3 -4 -5 -6 -6 -6 -6 -7 -7 -7 -7 -6 -5 -5 -5 -5 -5 -4 -4 -4 -4 -4 -4 -5 -5 -6 -7 -7 -5
2 3 2 0 -1 -1 -0 -0 -0 -1 -2 -3 -4 -5 -4 -4 -5 -6 -7 -7 -8 -8 -8 -8 -7 -8 -7 -6 -5 -5 -5 -5 -5 -5 -5 -5 -5 -5 -6 -6 -7 -8 -9 -8
1 0 0 0 0 -0 -1 -2 -3 -4 -5 -7 -7 -8 -8 -7 -7 -8 -8 -7 -7 -8 -9 -8 -8 -8 -8 -6 -6 -5 -5 -6 -6 -6 -6 -6 -6 -6 -6 -7 -7 -8 -9 -9
-3 -3 -4 -4 -3 -3 -4 -5 -6 -8 -8 -8 -8 -9 -9 -9 -9 -9 -8 -8 -8 -8 -9 -9 -8 -8 -8 -7 -6 -6 -6 -6 -6 -7 -7 -7 -7 -7 -7 -7 -8 -8 -9 -9
-5 -6 -7 -8 -8 -8 -8 -9 -9 -9 -9 -9 -9 -9 -9 -10 -9 -8 -8 -9 -10 -10 -10 -10 -8 -8 -8 -7 -7 -7 -7 -7 -7 -7 -7 -8 -8 -9 -9 -9 -9 -9 -10 -10
-7 -8 -9 -9 -10 -10 -10 -10 -10 -10 -10 -10 -9 -10 -10 -10 -11 -9 -7 -7 -10 -10 -9 -10 -10 -8 -8 -7 -7 -8 -7 -8 -8 -8 -8 -8 -8 -9 -9 -9 -10 -10 -11 -11
-8 -9 -9 -9 -9 -10 -10 -10 -10 -10 -10 -11 -11 -10 -9 -8 -10 -11 -11 -10 -10 -11 -10 -11 -11 -11 -9 -8 -8 -8 -8 -8 -8 -8 -8 -9 -9 -9 -10 -10 -11 -11 -12 -12
-8 -8 -9 -9 -9 -10 -10 -11 -11 -11 -11 -11 -11 -10 -10 -10 -9 -9 -9 -12 -11 -12 -11 -13 -13 -12 -10 -10 -10 -10 -10 -10 -10 -10 -10 -10 -10 -10 -11 -11 -12 -12 -12 -13
-8 -8 -9 -9 -9 -8 -8 -9 -10 -11 -11 -11 -12 -12 -11 -9 -10 -10 -11 -13 -13 -13 -14 -14 -13 -12 -11 -11 -11 -11 -11 -11 -11 -11 -12 -12 -12 -12 -12 -13 -13 -14 -14 -14
-8 -8 -8 -8 -7 -7 -8 -9 -9 -9 -9 -10 -10 -10 -11 -11 -11 -12 -12 -13 -14 -12 -13 -14 -14 -13 -12 -12 -12 -13 -13 -13 -12 -12 -12 -13 -13 -13 -13 -14 -14 -14 -15 -15
-7 -6 -7 -7 -7 -7 -7 -7 -7 -8 -8 -9 -10 -11 -11 -11 -12 -12 -13 -13 -13 -13 -13 -14 -14 -13 -13 -14 -14 -13 -13 -14 -14 -14 -14 -14 -14 -14 -15 -15 -15 -15 -16 -16
-7 -7 -6 -6 -7 -7 -8 -8 -8 -8 -9 -10 -10 -11 -11 -12 -13 -12 -13 -13 -13 -13 -13 -14 -14 -15 -14 -14 -14 -14 -14 -16 -15 -15 -15 -15 -15 -16 -16 -16 -17 -17 -18 -18

GFSNGP_925_temp_114.txt.gz
Temp
14 15 10 13 15 19 20 20 19 16 16 16 14 12 14 14 14 12 12 11 11 10 8 8 7 5 5 4 4 3 4 8 12 13 13 13 13 14 15 14 15 14 13 13
15 18 16 13 14 14 14 16 18 18 18 13 13 14 12 11 11 10 10 9 8 7 6 5 4 3 3 3 2 3 4 8 12 12 13 13 13 14 14 14 14 13 13 13
15 17 17 17 18 19 20 20 19 17 15 14 13 11 9 9 9 8 7 7 5 4 3 3 2 1 2 2 2 2 5 10 12 12 12 12 13 13 13 13 13 13 12 12
13 15 14 15 15 16 17 16 16 16 15 13 10 8 7 8 7 6 5 5 3 3 1 1 0 -0 0 1 1 1 1 3 9 12 12 12 12 12 12 13 13 13 13 13
13 14 16 12 13 12 12 12 12 14 13 11 9 8 6 7 7 5 4 3 2 1 0 -1 -1 -1 -0 -0 -0 -0 -1 0 2 6 11 12 12 12 12 12 12 13 12 12
13 13 13 11 14 15 14 10 6 11 12 12 11 10 6 7 6 5 2 1 0 -0 -1 -1 -2 -1 -1 -1 -1 -1 -1 -1 -0 2 6 9 11 12 12 11 9 9 8 8
13 13 11 9 12 14 12 9 7 8 9 8 7 6 6 6 5 3 1 -0 -0 0 -1 -2 -2 -2 -1 -1 -2 -2 -2 -1 -0 0 0 3 6 8 9 8 6 4 4 3
10 12 11 7 11 9 7 7 7 7 8 7 7 6 6 5 3 1 -0 -1 -2 -2 -2 -3 -3 -2 -1 -1 -2 -2 -2 -2 -2 -0 -0 -1 1 1 2 2 1 -1 -2 -2
8 8 5 5 6 6 7 8 9 9 9 8 7 6 5 4 2 0 -1 -2 -2 -3 -3 -3 -4 -3 -2 -2 -2 -2 -3 -3 -3 -2 -1 -0 -1 -1 -1 -2 -2 -3 -4 -4
9 6 6 4 4 4 4 6 8 8 8 8 7 6 5 4 3 0 -1 -2 -2 -3 -3 -4 -4 -3 -3 -2 -2 -3 -3 -3 -4 -4 -4 -3 -2 -1 -3 -3 -3 -4 -4 -5
6 6 6 4 3 3 3 4 6 7 6 6 7 6 5 4 3 2 0 -1 -3 -3 -3 -4 -4 -4 -4 -3 -2 -3 -3 -3 -4 -5 -5 -5 -5 -4 -4 -4 -4 -4 -4 -4
5 3 4 3 2 2 1 2 4 5 6 4 4 4 4 3 2 1 -0 -1 -2 -3 -3 -4 -5 -5 -4 -4 -3 -3 -3 -3 -3 -4 -5 -5 -6 -5 -5 -5 -5 -5 -4 -4
3 3 3 2 1 1 1 0 1 3 3 4 3 3 3 1 0 -0 -1 -2 -3 -4 -5 -5 -5 -5 -4 -4 -4 -4 -4 -3 -4 -4 -4 -4 -5 -5 -6 -6 -6 -5 -5 -5
2 2 2 2 1 1 1 1 1 1 2 2 1 1 0 -1 -2 -3 -3 -3 -4 -5 -5 -6 -5 -5 -5 -4 -4 -4 -4 -4 -4 -4 -4 -4 -5 -5 -6 -6 -6 -6 -6 -6
2 2 1 0 -0 -0 0 0 2 2 2 1 -0 -1 -2 -2 -4 -5 -5 -5 -5 -6 -6 -6 -7 -6 -5 -4 -4 -4 -4 -4 -4 -4 -4 -4 -5 -5 -5 -5 -5 -5 -6 -6
3 3 2 0 -0 -1 -1 -1 -0 1 -0 -1 -2 -2 -3 -4 -5 -6 -6 -7 -7 -7 -7 -7 -7 -6 -5 -4 -4 -4 -4 -4 -4 -4 -5 -5 -5 -6 -7 -7 -7 -7 -7 -6
2 2 2 2 0 -2 -2 -2 -1 -2 -3 -4 -5 -6 -5 -4 -5 -6 -6 -7 -8 -8 -8 -8 -7 -7 -6 -5 -5 -4 -5 -5 -5 -5 -5 -6 -6 -7 -7 -8 -8 -8 -8 -8
1 0 -0 -0 -0 -0 -2 -3 -4 -5 -6 -7 -7 -8 -8 -8 -7 -8 -8 -8 -8 -8 -9 -8 -7 -7 -6 -6 -5 -5 -6 -6 -6 -6 -6 -6 -7 -7 -7 -8 -8 -8 -9 -9
-3 -4 -5 -5 -4 -4 -5 -6 -7 -8 -8 -8 -8 -9 -9 -9 -8 -8 -9 -9 -9 -8 -9 -8 -8 -7 -7 -6 -6 -6 -6 -6 -6 -7 -7 -7 -7 -7 -8 -8 -8 -9 -9 -10
-5 -6 -7 -8 -9 -8 -8 -9 -9 -9 -9 -8 -9 -9 -9 -10 -10 -9 -9 -10 -10 -9 -9 -9 -8 -8 -7 -7 -7 -7 -7 -7 -7 -8 -8 -8 -8 -9 -9 -9 -9 -10 -10 -11
-7 -8 -9 -9 -9 -9 -9 -9 -10 -10 -10 -10 -9 -9 -9 -10 -10 -9 -8 -9 -11 -10 -10 -10 -10 -9 -8 -8 -7 -7 -7 -7 -8 -8 -8 -8 -8 -9 -9 -10 -10 -10 -11 -11
-8 -8 -8 -9 -9 -10 -10 -10 -10 -10 -10 -10 -9 -9 -8 -9 -10 -11 -11 -11 -11 -11 -11 -11 -11 -10 -9 -9 -9 -9 -9 -9 -9 -9 -9 -9 -9 -10 -10 -11 -11 -11 -12 -12
-8 -8 -8 -9 -9 -9 -10 -10 -10 -10 -11 -11 -11 -11 -9 -9 -10 -10 -11 -12 -12 -12 -12 -13 -12 -11 -10 -10 -10 -10 -10 -10 -10 -10 -10 -10 -11 -11 -11 -11 -12 -12 -13 -13
-7 -8 -8 -8 -8 -8 -8 -9 -9 -10 -11 -11 -11 -10 -10 -9 -10 -11 -11 -12 -13 -13 -13 -13 -12 -12 -11 -11 -11 -11 -11 -11 -11 -11 -11 -11 -12 -12 -12 -13 -13 -14 -14 -14
-8 -8 -8 -8 -7 -7 -8 -8 -9 -9 -9 -9 -10 -10 -10 -11 -11 -12 -12 -12 -12 -12 -13 -13 -13 -12 -12 -12 -12 -13 -13 -13 -12 -12 -12 -12 -13 -13 -13 -14 -14 -14 -15 -15
-7 -6 -6 -7 -6 -6 -6 -6 -7 -7 -7 -9 -10 -10 -11 -11 -11 -12 -13 -12 -13 -13 -13 -14 -14 -13 -13 -13 -13 -13 -14 -14 -14 -14 -14 -14 -14 -15 -15 -15 -15 -16 -16 -16
-6 -6 -6 -6 -6 -6 -7 -8 -8 -8 -9 -9 -10 -10 -11 -12 -12 -12 -12 -12 -12 -13 -13 -13 -14 -14 -14 -14 -14 -14 -15 -14 -14 -15 -15 -15 -15 -16 -16 -16 -17 -17 -17 -18

GFSNGP_925_temp_117.txt.gz
Temp
12 13 9 10 14 15 15 17 17 15 14 12 10 10 10 10 10 9 8 7 6 5 5 4 3 2 2 2 2 2 2 3 4 6 11 13 14 14 14 14 15 15 15 13
12 15 14 14 14 15 15 15 16 15 13 12 11 10 9 9 8 7 6 6 5 4 4 2 1 1 1 1 1 1 2 2 3 7 11 12 13 14 13 14 15 14 14 13
12 14 14 12 11 12 11 12 15 13 11 10 9 8 7 7 6 6 5 4 3 3 2 1 0 -0 -0 0 0 0 1 1 2 3 12 12 13 13 13 13 14 14 13 12
10 12 12 11 13 13 10 9 9 11 10 8 7 7 7 6 5 4 4 3 2 1 0 -1 -1 -1 -1 -0 -0 -1 -0 -0 1 1 5 12 12 12 12 13 13 13 12 12
10 10 13 11 10 10 10 9 7 9 9 8 7 7 5 5 4 3 2 1 1 0 -1 -1 -1 -1 -1 -1 -1 -1 -1 -1 -1 0 2 11 12 12 12 12 12 11 11 12
9 11 10 8 8 10 10 8 7 6 6 8 8 8 5 4 3 2 1 -0 -1 -0 -1 -2 -2 -2 -1 -1 -2 -2 -2 -2 -1 -0 0 3 11 12 12 10 9 9 8 9
8 9 9 6 8 9 10 8 7 6 5 6 5 5 4 3 2 1 -0 -1 -2 -2 -2 -3 -3 -3 -2 -2 -2 -3 -3 -3 -2 -1 0 0 3 8 9 6 5 2 3 2
8 8 8 6 8 7 6 6 6 6 6 6 6 5 4 3 1 -0 -1 -2 -2 -2 -3 -3 -3 -3 -3 -2 -3 -3 -3 -4 -3 -2 -0 0 -1 0 1 1 0 -1 -1 -2
6 6 5 4 4 4 5 5 6 7 7 7 6 5 4 2 1 -1 -2 -3 -3 -3 -3 -4 -4 -4 -3 -3 -3 -3 -4 -4 -5 -4 -2 -1 -1 -2 -2 -2 -2 -3 -4 -5
6 5 4 4 3 3 3 4 5 5 5 7 6 5 4 3 1 -1 -2 -3 -3 -4 -4 -4 -4 -4 -4 -3 -3 -3 -3 -4 -5 -5 -4 -4 -3 -3 -3 -3 -4 -4 -4 -5
5 4 3 2 2 2 2 2 4 4 3 3 4 4 3 2 1 -0 -2 -3 -4 -4 -4 -5 -5 -4 -4 -4 -3 -3 -3 -4 -5 -5 -5 -4 -4 -4 -4 -4 -4 -4 -4 -4
5 3 3 2 1 1 1 1 2 3 3 3 3 3 1 0 -1 -1 -3 -4 -4 -5 -5 -5 -5 -5 -4 -4 -4 -4 -3 -4 -4 -4 -5 -5 -5 -5 -4 -4 -4 -4 -4 -4
3 2 2 1 1 1 1 0 1 1 1 0 1 0 -0 -2 -3 -4 -4 -5 -5 -6 -6 -6 -6 -5 -4 -4 -4 -4 -4 -4 -4 -5 -5 -5 -6 -5 -5 -5 -5 -4 -4 -4
2 2 1 0 0 0 1 1 0 0 -1 -2 -2 -2 -3 -4 -5 -6 -6 -6 -6 -7 -7 -6 -6 -5 -5 -4 -4 -4 -4 -4 -4 -4 -5 -5 -6 -6 -6 -6 -6 -6 -6 -6
2 1 0 -0 -1 -1 -1 -0 -1 -1 -3 -3 -3 -3 -4 -5 -6 -6 -7 -7 -7 -7 -8 -7 -6 -5 -4 -4 -4 -4 -4 -5 -5 -5 -6 -6 -7 -7 -7 -7 -6 -6 -7 -7
2 2 1 -0 -1 -2 -2 -2 -3 -4 -4 -4 -5 -5 -5 -6 -6 -7 -8 -8 -8 -8 -8 -8 -7 -6 -5 -5 -5 -5 -5 -5 -5 -6 -6 -7 -7 -8 -8 -8 -8 -8 -8 -8
1 -0 -0 -1 -2 -2 -3 -3 -4 -5 -6 -6 -7 -7 -6 -6 -7 -8 -8 -8 -9 -9 -8 -8 -7 -6 -6 -6 -5 -5 -5 -6 -6 -6 -7 -7 -8 -8 -9 -9 -9 -10 -10 -10
-4 -5 -5 -4 -3 -4 -5 -6 -6 -7 -7 -8 -8 -9 -9 -9 -9 -9 -9 -9 -9 -9 -9 -8 -7 -7 -6 -6 -6 -6 -6 -7 -7 -7 -7 -7 -8 -8 -9 -9 -10 -10 -11 -10
-6 -7 -7 -7 -7 -7 -7 -8 -8 -9 -9 -9 -9 -9 -10 -10 -9 -10 -9 -10 -10 -10 -10 -9 -8 -8 -7 -7 -7 -7 -7 -7 -7 -8 -8 -8 -8 -9 -9 -10 -10 -11 -11 -12
-7 -8 -9 -9 -9 -9 -10 -10 -10 -10 -10 -9 -9 -9 -10 -10 -10 -10 -10 -11 -11 -11 -10 -10 -9 -8 -8 -7 -7 -7 -8 -8 -8 -8 -8 -9 -9 -10 -10 -10 -11 -11 -12 -13
-9 -9 -9 -10 -10 -10 -10 -10 -10 -10 -10 -10 -10 -10 -10 -10 -10 -10 -10 -12 -12 -11 -11 -10 -10 -9 -9 -8 -8 -8 -8 -8 -8 -9 -9 -9 -10 -10 -11 -11 -11 -12 -13 -13
-8 -9 -9 -9 -10 -10 -10 -10 -10 -10 -10 -10 -10 -9 -10 -11 -11 -11 -12 -12 -12 -12 -12 -11 -10 -10 -10 -9 -9 -9 -9 -9 -10 -10 -10 -10 -10 -11 -11 -11 -12 -12 -13 -13
-8 -9 -9 -9 -10 -10 -10 -10 -10 -10 -11 -10 -10 -10 -10 -11 -11 -12 -13 -13 -12 -13 -12 -12 -11 -11 -10 -10 -11 -11 -11 -10 -11 -11 -11 -11 -11 -12 -12 -12 -13 -13 -14 -14
-8 -8 -8 -9 -9 -10 -10 -10 -10 -10 -10 -10 -10 -10 -10 -11 -12 -12 -12 -13 -13 -13 -13 -13 -12 -12 -12 -12 -12 -12 -12 -12 -12 -12 -12 -12 -12 -13 -13 -13 -14 -14 -14 -15
-8 -8 -8 -8 -8 -8 -8 -9 -9 -10 -10 -10 -10 -11 -11 -11 -12 -12 -12 -12 -13 -13 -13 -13 -13 -13 -13 -13 -13 -13 -13 -13 -13 -13 -13 -13 -13 -14 -14 -14 -15 -15 -15 -16
-8 -8 -7 -7 -7 -7 -7 -8 -8 -9 -9 -10 -11 -11 -11 -12 -12 -12 -12 -13 -13 -13 -13 -13 -14 -14 -14 -14 -14 -14 -14 -14 -14 -14 -14 -15 -15 -15 -15 -15 -16 -16 -16 -17
-6 -6 -7 -7 -7 -7 -8 -8 -9 -10 -10 -10 -11 -11 -11 -12 -12 -12 -12 -13 -13 -13 -13 -14 -14 -14 -14 -14 -15 -15 -15 -15 -15 -15 -15 -16 -16 -16 -16 -17 -17 -17 -17 -18